Weather History for PAPG - March, 2013

Change the Weather History Date:

Thursday, March 28, 2013

  Actual Average Record
Temperature  
Mean Temperature 34 °F -  
Max Temperature 42 °F 39 °F 54 °F (1993)
Min Temperature 26 °F 28 °F 22 °F (1993)
Degree Days  
Heating Degree Days 31    
Moisture  
Dew Point 24 °F    
Average Humidity 69    
Maximum Humidity 93    
Minimum Humidity 42    
Precipitation  
Precipitation 0.00 in - - ()
Sea Level Pressure  
Sea Level Pressure 30.19 in    
Wind  
Wind Speed 3 mph (East)    
Max Wind Speed 9 mph    
Max Gust Speed -    
Visibility 10 miles    
Events      
Averages and records for this station are not official NWS values.
T = Trace of Precipitation, MM = Missing Value Source: NWS Daily Summary

Daily Weather History Graph

Daily Weather History Graph

Search for Another Location

Airport or City:

Trip Planner

Search our weather history database for the weather conditions in past years. The results will help you decide how hot, cold, wet, or windy it might be!

Date:

Astronomy

Mar. 28, 2013 Rise Set
Actual Time 6:31 AM AKDT 7:23 PM AKDT
Civil Twilight 5:52 AM AKDT 8:02 PM AKDT
Nautical Twilight 5:05 AM AKDT 8:49 PM AKDT
Astronomical Twilight 4:14 AM AKDT 9:41 PM AKDT
Moon 9:55 PM AKDT 6:40 AM AKDT
Length of Visible Light 14h 09m
Length of Day
12h 52m
Full, 97% of the Moon is Illuminated
Mar 28
Full
Apr 2
Last Quarter
Apr 10
New
Apr 18
First Quarter
Apr 25
Full

Hourly Weather History & Observations

Time (AKDT) Temp. Windchill Dew Point Humidity Pressure Visibility Wind Dir Wind Speed Gust Speed Precip Events Conditions
12:16 AM 28.4 °F 23.3 °F 24.8 °F 86% 30.18 in 10.0 mi South 4.6 mph - N/A   Clear
12:36 AM 28.4 °F - 24.8 °F 86% 30.18 in 10.0 mi Calm Calm - N/A   Clear
12:56 AM 28.4 °F - 23.0 °F 80% 30.18 in 10.0 mi Calm Calm - N/A   Clear
1:16 AM 28.4 °F 24.6 °F 23.0 °F 80% 30.18 in 10.0 mi SSW 3.5 mph - N/A   Clear
1:36 AM 28.4 °F 24.6 °F 24.8 °F 86% 30.17 in 10.0 mi South 3.5 mph - N/A   Clear
1:56 AM 28.4 °F - 24.8 °F 86% 30.18 in 10.0 mi Calm Calm - N/A   Clear
2:16 AM 28.4 °F - 24.8 °F 86% 30.18 in 10.0 mi Calm Calm - N/A   Clear
2:36 AM 28.4 °F - 24.8 °F 86% 30.17 in 10.0 mi Calm Calm - N/A   Clear
2:56 AM 28.4 °F 24.6 °F 24.8 °F 86% 30.17 in 10.0 mi SSW 3.5 mph - N/A   Clear
3:16 AM 28.4 °F - 24.8 °F 86% 30.17 in 10.0 mi Calm Calm - N/A   Clear
3:36 AM 28.4 °F - 24.8 °F 86% 30.17 in 10.0 mi Calm Calm - N/A   Clear
3:56 AM 28.4 °F - 24.8 °F 86% 30.17 in 10.0 mi Calm Calm - N/A   Clear
4:16 AM 28.4 °F - 24.8 °F 86% 30.17 in 10.0 mi Calm Calm - N/A   Clear
4:36 AM 26.6 °F 22.6 °F 23.0 °F 86% 30.18 in 10.0 mi South 3.5 mph - N/A   Clear
4:56 AM 30.2 °F 26.7 °F 24.8 °F 80% 30.18 in 10.0 mi SSW 3.5 mph - N/A   Clear
5:16 AM 30.2 °F 26.7 °F 24.8 °F 80% 30.18 in 10.0 mi West 3.5 mph - N/A   Clear
5:36 AM 30.2 °F - 23.0 °F 75% 30.18 in 10.0 mi Calm Calm - N/A   Clear
5:56 AM 28.4 °F 24.6 °F 23.0 °F 80% 30.18 in 10.0 mi South 3.5 mph - N/A   Clear
6:16 AM 28.4 °F - 24.8 °F 86% 30.18 in 10.0 mi Calm Calm - N/A   Clear
6:36 AM 28.4 °F - 23.0 °F 80% 30.18 in 10.0 mi Calm Calm - N/A   Clear
6:56 AM 26.6 °F - 24.8 °F 93% 30.18 in 10.0 mi Calm Calm - N/A   Clear
7:16 AM 26.6 °F - 24.8 °F 93% 30.18 in 10.0 mi Calm Calm - N/A   Clear
7:36 AM 26.6 °F - 24.8 °F 93% 30.19 in 10.0 mi Calm Calm - N/A   Clear
7:56 AM 28.4 °F - 24.8 °F 86% 30.19 in 10.0 mi Calm Calm - N/A   Partly Cloudy
8:16 AM 30.2 °F - 26.6 °F 86% 30.19 in 10.0 mi Calm Calm - N/A   Partly Cloudy
8:36 AM 32.0 °F - 26.6 °F 80% 30.18 in 10.0 mi Calm Calm - N/A   Partly Cloudy
8:56 AM 33.8 °F - 24.8 °F 70% 30.19 in 10.0 mi Calm Calm - N/A   Partly Cloudy
9:16 AM 33.8 °F - 24.8 °F 70% 30.19 in 10.0 mi Calm Calm - N/A   Partly Cloudy
9:36 AM - - - N/A% - 10.0 mi North - - N/A   Partly Cloudy
9:56 AM 35.6 °F 31.7 °F 24.8 °F 65% 30.21 in 10.0 mi NE 4.6 mph - N/A   Partly Cloudy
10:16 AM 35.6 °F 29.9 °F 24.8 °F 65% 30.21 in 10.0 mi NE 6.9 mph - N/A   Partly Cloudy
10:36 AM 35.6 °F 30.7 °F 24.8 °F 65% 30.21 in 10.0 mi NE 5.8 mph - N/A   Partly Cloudy
10:56 AM 37.4 °F 32.8 °F 24.8 °F 60% 30.21 in 10.0 mi ENE 5.8 mph - N/A   Partly Cloudy
11:16 AM 37.4 °F 32.8 °F 24.8 °F 60% 30.21 in 10.0 mi East 5.8 mph - N/A   Partly Cloudy
11:36 AM 37.4 °F 33.8 °F 24.8 °F 60% 30.21 in 10.0 mi East 4.6 mph - N/A   Partly Cloudy
11:56 AM 39.2 °F 35.0 °F 24.8 °F 56% 30.21 in 10.0 mi East 5.8 mph - N/A   Partly Cloudy
12:16 PM 39.2 °F 35.0 °F 24.8 °F 56% 30.21 in 10.0 mi East 5.8 mph - N/A   Partly Cloudy
12:36 PM 41.0 °F 37.1 °F 24.8 °F 53% 30.21 in 10.0 mi East 5.8 mph - N/A   Partly Cloudy
12:56 PM 39.2 °F 34.2 °F 24.8 °F 56% 30.21 in 10.0 mi ENE 6.9 mph - N/A   Partly Cloudy
1:16 PM 39.2 °F 33.0 °F 24.8 °F 56% 30.21 in 10.0 mi NNE 9.2 mph - N/A   Partly Cloudy
1:36 PM 39.2 °F 33.6 °F 24.8 °F 56% 30.21 in 10.0 mi NE 8.1 mph - N/A   Partly Cloudy
1:56 PM 41.0 °F 35.8 °F 23.0 °F 49% 30.21 in 10.0 mi NE 8.1 mph - N/A   Partly Cloudy
2:16 PM 41.0 °F 37.1 °F 21.2 °F 45% 30.21 in 10.0 mi ENE 5.8 mph - N/A   Partly Cloudy
2:36 PM 42.8 °F 38.0 °F 23.0 °F 46% 30.21 in 10.0 mi NE 8.1 mph - N/A   Partly Cloudy
2:56 PM 41.0 °F 37.1 °F 21.2 °F 45% 30.21 in 10.0 mi East 5.8 mph - N/A   Clear
3:16 PM 41.0 °F 35.2 °F 21.2 °F 45% 30.21 in 10.0 mi NE 9.2 mph - N/A   Clear
3:36 PM 41.0 °F 35.8 °F 21.2 °F 45% 30.20 in 10.0 mi NE 8.1 mph - N/A   Clear
3:56 PM 42.8 °F 38.6 °F 21.2 °F 42% 30.20 in 10.0 mi ENE 6.9 mph - N/A   Clear
4:16 PM 42.8 °F 39.3 °F 26.6 °F 53% 30.20 in 10.0 mi East 5.8 mph - N/A   Clear
4:36 PM 42.8 °F 38.0 °F 23.0 °F 46% 30.20 in 10.0 mi ENE 8.1 mph - N/A   Clear
4:56 PM 41.0 °F 36.4 °F 24.8 °F 53% 30.20 in 10.0 mi ENE 6.9 mph - N/A   Clear
5:16 PM 41.0 °F 35.8 °F 23.0 °F 49% 30.19 in 10.0 mi NE 8.1 mph - N/A   Clear
5:36 PM 41.0 °F 37.1 °F 23.0 °F 49% 30.19 in 10.0 mi ENE 5.8 mph - N/A   Clear
5:56 PM 41.0 °F 38.0 °F 24.8 °F 53% 30.19 in 10.0 mi East 4.6 mph - N/A   Clear
6:16 PM 39.2 °F 35.9 °F 24.8 °F 56% 30.19 in 10.0 mi ESE 4.6 mph - N/A   Clear
6:36 PM 39.2 °F 35.0 °F 24.8 °F 56% 30.20 in 10.0 mi SE 5.8 mph - N/A   Clear
6:56 PM 37.4 °F 32.8 °F 24.8 °F 60% 30.20 in 10.0 mi ESE 5.8 mph - N/A   Clear
7:16 PM 35.6 °F 29.2 °F 24.8 °F 65% 30.20 in 10.0 mi ESE 8.1 mph - N/A   Clear
7:50 PM 35.6 °F 31.7 °F 23.0 °F 60% 30.20 in 10.0 mi ESE 4.6 mph - N/A   Clear
8:50 PM 30.2 °F - 24.8 °F 80% 30.20 in 10.0 mi Calm Calm - N/A   Clear
9:47 PM 26.6 °F - 24.8 °F 93% 30.20 in 10.0 mi Calm Calm - N/A   Clear